Terminal Aerodrome Forecast
Issued by NWS Springfield, MO

Home | Current Version | Previous Version | Text Only | Print | Product List | Glossary On
Versions: 1 2 3 4 5 6 7 8 9 10 11 12 13 14 15
000
FTUS43 KSGF 282300
TAFSGF
TAF
KSGF 282320Z 2900/2924 35010KT P6SM SKC
     FM290300 VRB04KT P6SM SKC
     FM291700 34006KT P6SM SCT040=

USA.gov is the U.S. government's official web portal to all federal, state and local government web resources and services.